FW1683 Weather Reports


time (UTC)temp
C
wind
direction
speed
KPH
gust
KPH
rain 1hr
cm
rain 24hr
cm
rain mn
cm
humidity
%
barometer
mb
20260508045026 12 266 8.0 11.3 0.00 0.00 0.00 86 1011.6
20260508044009 12 280 6.4 11.3 0.00 0.00 0.00 85 1011.6
20260508042023 12 277 6.4 11.3 0.00 0.00 0.00 85 1011.3
20260508041009 12 317 6.4 9.7 0.00 0.00 0.00 85 1011.4
20260508040010 12 311 11.3 16.1 0.00 0.00 0.00 85 1011.3
20260508035008 12 306 12.9 19.3 0.00 0.00 0.00 86 1011.2
20260508034008 12 302 9.7 14.5 0.00 0.00 0.00 86 1011.2
20260508033016 12 296 6.4 11.3 0.00 0.00 0.00 86 1011.4
20260508032008 12 303 8.0 12.9 0.00 0.00 0.00 86 1011.6
20260508031009 12 279 6.4 11.3 0.00 0.00 0.00 86 1011.7
20260508030011 12 291 4.8 8.0 0.00 0.00 0.00 86 1011.7
20260508025008 12 321 6.4 9.7 0.00 0.00 0.00 86 1011.7
20260508024008 12 289 6.4 11.3 0.00 0.00 0.00 86 1011.8
20260508023009 12 293 8.0 14.5 0.00 0.00 0.00 86 1012.0
20260508022027 12 306 6.4 11.3 0.00 0.00 0.00 86 1011.8
20260508021008 12 314 9.7 14.5 0.00 0.00 0.00 86 1011.7
20260508020010 12 306 9.7 16.1 0.00 0.00 0.00 86 1011.8
20260508015008 13 294 8.0 12.9 0.00 0.00 0.00 86 1012.1
20260508013011 13 292 6.4 11.3 0.00 0.00 0.00 87 1012.1
20260508012007 13 285 6.4 11.3 0.00 0.00 0.00 87 1012.3
20260508011008 13 299 9.7 14.5 0.00 0.00 0.00 87 1012.4
20260508010023 13 297 8.0 14.5 0.00 0.00 0.00 87 1012.4
20260508005007 13 303 9.7 14.5 0.00 0.00 0.00 87 1012.4
20260508004009 13 308 11.3 17.7 0.00 0.00 0.00 87 1012.4
20260508001008 13 297 8.0 12.9 0.00 0.00 0.00 89 1012.8
20260508000010 13 285 8.0 14.5 0.00 0.00 0.00 90 1012.7
20260507235009 13 296 8.0 14.5 0.00 0.00 0.00 90 1012.8
20260507232010 13 306 12.9 17.7 0.00 0.00 0.00 89 1012.9
20260507231008 13 309 9.7 16.1 0.00 0.00 0.00 88 1013.0
20260507222009 13 308 9.7 14.5 0.00 0.00 0.00 88 1013.1
20260507220024 14 311 6.4 12.9 0.00 0.00 0.36 87 1013.2
20260507214009 14 303 9.7 16.1 0.00 0.00 0.36 87 1013.0
20260507213011 14 303 11.3 17.7 0.00 0.00 0.36 88 1013.0
20260507212008 14 287 8.0 12.9 0.00 0.00 0.36 88 1012.9
20260507210028 15 284 6.4 9.7 0.03 0.00 0.36 87 1012.6
20260507205012 15 277 6.4 9.7 0.03 0.00 0.36 87 1012.4
20260507204020 15 303 4.8 8.0 0.03 0.00 0.36 86 1012.3
20260507203012 15 340 3.2 6.4 0.03 0.00 0.36 85 1012.2
20260507202007 15 40 0.0 3.2 0.03 0.00 0.36 84 1012.1
20260507200013 15 237 1.6 3.2 0.05 0.00 0.36 84 1012.0
20260507195007 15 235 1.6 4.8 0.05 0.00 0.33 84 1012.0
20260507194009 15 41 1.6 3.2 0.13 0.00 0.33 82 1011.9
20260507193007 15 348 4.8 6.4 0.15 0.00 0.33 81 1011.9
20260507192007 15 347 3.2 8.0 0.20 0.00 0.33 82 1011.9
20260507191009 15 342 6.4 11.3 0.23 0.00 0.33 83 1011.9
20260507190023 15 357 6.4 12.9 0.28 0.00 0.30 83 1012.1
20260507185006 15 335 9.7 14.5 0.30 0.00 0.30 82 1012.1
20260507184008 15 325 8.0 12.9 0.23 0.00 0.23 82 1012.1
20260507183018 15 8 8.0 14.5 0.18 0.00 0.18 80 1012.1
20260507182008 16 339 6.4 11.3 0.15 0.00 0.15 79 1012.0
20260507181022 16 335 11.3 20.9 0.10 0.00 0.10 77 1011.9
20260507180011 17 333 8.0 16.1 0.03 0.00 0.03 76 1012.0
20260507175007 17 322 11.3 19.3 0.00 0.00 0.00 73 1011.9
20260507173012 18 349 12.9 22.5 0.00 0.00 0.00 57 1011.5
20260507172008 19 9 11.3 20.9 0.00 0.00 0.00 58 1011.3
20260507170024 20 53 12.9 20.9 0.00 0.00 0.00 62 1011.1
20260507165007 20 46 9.7 16.1 0.00 0.00 0.00 63 1011.0
20260507164008 20 53 6.4 11.3 0.00 0.00 0.00 61 1010.9
20260507163013 20 67 8.0 12.9 0.00 0.00 0.00 62 1010.8
20260507162009 20 78 8.0 14.5 0.00 0.00 0.00 63 1010.6
20260507161008 20 69 9.7 16.1 0.00 0.00 0.00 63 1010.4
20260507160031 20 53 9.7 16.1 0.00 0.00 0.00 62 1010.4
20260507155008 20 73 9.7 12.9 0.00 0.00 0.00 60 1010.4
20260507154010 19 66 12.9 19.3 0.00 0.00 0.00 58 1010.4
20260507153027 20 82 14.5 22.5 0.00 0.00 0.00 64 1010.4
20260507152008 19 94 12.9 20.9 0.00 0.00 0.00 65 1010.4
20260507151007 20 66 11.3 19.3 0.00 0.00 0.00 65 1010.4
20260507150022 20 50 17.7 27.4 0.00 0.00 0.00 66 1010.4
20260507145010 20 60 16.1 24.1 0.00 0.00 0.00 63 1010.4
20260507144010 20 56 16.1 25.7 0.00 0.00 0.00 65 1010.5
20260507143017 20 65 11.3 19.3 0.00 0.00 0.00 64 1010.6
20260507142009 20 63 16.1 25.7 0.00 0.00 0.00 62 1010.8
20260507141009 20 57 16.1 24.1 0.00 0.00 0.00 60 1010.9
20260507140010 21 69 11.3 19.3 0.00 0.00 0.00 60 1010.8
20260507134011 21 48 19.3 30.6 0.00 0.00 0.00 58 1010.9
20260507133008 22 57 14.5 24.1 0.00 0.00 0.00 55 1011.0
20260507132008 22 50 14.5 22.5 0.00 0.00 0.00 51 1011.1
20260507131009 22 56 17.7 27.4 0.00 0.00 0.00 52 1011.1
20260507130033 22 69 16.1 25.7 0.00 0.00 0.00 55 1011.2
20260507125011 21 63 16.1 24.1 0.00 0.00 0.00 58 1011.2
20260507123009 20 61 11.3 20.9 0.00 0.00 0.00 63 1011.5
20260507120015 18 46 12.9 22.5 0.00 0.00 0.00 73 1011.8
20260507114008 18 51 14.5 22.5 0.00 0.00 0.00 73 1012.1
20260507113008 18 44 17.7 27.4 0.00 0.00 0.00 69 1012.0
20260507112008 19 56 19.3 30.6 0.00 0.00 0.00 71 1012.2
20260507111009 20 61 14.5 24.1 0.00 0.00 0.00 68 1012.3
20260507105008 20 77 14.5 24.1 0.00 0.00 0.00 57 1012.5
20260507104011 20 60 19.3 29.0 0.00 0.00 0.00 60 1012.4
20260507103008 20 54 20.9 32.2 0.00 0.00 0.00 66 1012.3
20260507102008 20 51 25.7 37.0 0.00 0.00 0.00 62 1012.3
20260507100010 22 59 17.7 29.0 0.00 0.00 0.00 52 1012.3
20260507095008 22 52 16.1 24.1 0.00 0.00 0.00 54 1012.3
20260507094009 22 77 17.7 30.6 0.00 0.00 0.00 54 1012.3
20260507092008 21 54 17.7 27.4 0.00 0.00 0.00 55 1012.3
20260507091008 21 47 12.9 19.3 0.00 0.00 0.00 55 1012.3
20260507090022 21 37 12.9 20.9 0.00 0.00 0.00 57 1012.2
20260507085008 21 35 14.5 24.1 0.00 0.00 0.00 56 1012.3
20260507084009 22 23 11.3 22.5 0.00 0.00 0.00 57 1012.3
20260507075011 19 43 8.0 12.9 0.00 0.00 0.00 57 1012.4
20260507074008 19 40 9.7 14.5 0.00 0.00 0.00 57 1012.5
20260507073009 20 39 8.0 16.1 0.00 0.00 0.00 56 1012.4
20260507072008 19 24 8.0 12.9 0.00 0.00 0.00 54 1012.4
20260507071009 18 39 8.0 14.5 0.00 0.00 0.00 53 1012.2
20260507070013 18 36 4.8 8.0 0.00 0.00 0.00 54 1012.1
20260507065009 17 325 3.2 6.4 0.00 0.00 0.00 56 1012.1
20260507063009 17 338 4.8 8.0 0.00 0.00 0.00 61 1011.9
20260507062010 16 355 4.8 8.0 0.00 0.00 0.00 65 1011.9
20260507061008 15 339 4.8 9.7 0.00 0.00 0.00 69 1011.8
20260507060011 14 311 4.8 9.7 0.00 0.00 0.00 72 1011.6
20260507053022 13 113 1.6 4.8 0.00 0.00 0.00 77 1011.7
20260507051008 13 255 3.2 6.4 0.00 0.00 0.00 76 1011.6